Lapse_Rate
6.5 6.3 6.0 6.1 6.6 6.8 7.1 7.1 7.3 7.2 7.2 7.0 7.1 6.7 7.0 6.6 6.9 7.1 7.1 7.3 6.8 6.9 6.9 6.6 6.6 6.7 6.7 6.7 6.7 6.6 6.5 6.5 6.5 6.2 6.1 6.4 6.8 6.4 6.2 6.3 6.1 6.0 6.1 6.1
5.8 6.1 6.5 6.4 6.8 7.1 6.4 6.8 7.6 7.8 7.2 7.1 6.8 6.8 6.6 6.5 6.6 7.4 7.4 7.2 6.9 6.6 6.0 6.2 6.8 7.0 6.8 6.7 6.6 6.6 6.6 6.5 6.6 6.6 6.4 5.9 6.2 6.6 6.5 6.3 6.2 5.9 5.9 6.1
6.1 6.1 6.1 6.3 6.5 6.7 6.8 7.3 7.7 7.5 6.6 6.5 7.1 6.8 6.5 6.3 6.2 6.7 7.5 7.4 7.2 6.9 6.8 6.7 6.7 6.7 6.7 6.8 6.7 6.7 6.7 6.7 6.7 6.7 6.8 6.7 6.2 6.6 6.7 6.7 6.4 6.2 5.9 5.6
6.4 6.3 6.5 6.2 6.3 6.7 6.9 7.6 7.6 7.1 6.5 6.7 7.1 7.1 7.6 7.7 6.8 7.0 7.2 7.0 6.6 6.5 6.4 6.5 6.5 6.6 6.5 6.5 6.5 6.6 6.7 6.7 6.7 6.8 6.9 6.7 6.5 6.0 6.2 6.5 6.4 6.4 6.3 6.1
6.1 6.2 6.2 6.5 6.9 6.9 7.1 7.6 7.4 6.6 6.9 6.7 6.8 6.8 7.3 7.1 6.7 6.8 6.7 6.6 6.7 6.6 6.5 6.4 6.3 6.3 6.2 6.1 6.2 6.2 6.4 6.5 6.5 6.5 6.5 6.5 6.5 6.3 5.7 5.7 5.9 6.0 6.1 6.2
6.2 6.3 6.1 6.2 6.0 6.3 7.0 7.1 6.8 6.6 6.6 6.1 6.8 7.0 6.7 6.8 7.1 6.7 6.2 6.2 6.2 6.3 6.2 6.1 6.0 5.9 5.8 5.8 5.8 5.9 6.0 6.2 6.3 6.3 6.3 6.3 6.2 6.1 5.9 5.8 5.8 5.9 5.9 5.7
6.4 6.3 6.1 6.1 5.9 6.1 6.4 6.8 6.5 6.3 6.0 5.7 7.0 7.0 7.4 7.1 6.5 6.3 6.2 5.9 5.7 5.6 5.6 5.7 5.7 5.7 5.7 5.7 5.8 5.9 6.0 6.0 6.1 6.2 6.2 6.1 6.1 6.0 5.9 5.8 5.7 5.8 6.1 6.1
6.5 6.2 6.0 6.1 6.1 6.4 6.4 6.9 7.0 6.6 5.9 5.6 6.5 6.5 6.8 6.6 6.2 5.9 5.3 5.5 5.7 5.4 5.5 5.5 5.6 5.6 5.7 5.8 5.8 5.9 6.0 6.0 6.1 6.0 5.9 5.8 5.9 5.9 5.8 5.8 5.8 5.8 5.8 5.9
6.1 5.9 5.6 5.9 5.9 6.1 6.4 6.2 6.7 6.7 7.2 6.3 6.5 6.3 6.0 6.4 5.9 5.7 5.8 5.6 5.6 5.5 5.5 5.5 5.6 5.6 5.7 5.7 5.8 5.9 6.0 5.9 5.9 5.8 5.8 5.7 5.7 5.7 5.8 5.7 5.6 5.6 5.5 5.4
6.2 5.8 5.7 5.7 5.9 6.1 6.3 6.4 6.5 6.9 5.9 6.5 6.7 6.9 6.9 6.4 5.8 5.8 5.5 5.4 5.5 5.5 5.5 5.5 5.5 5.7 5.8 5.9 6.0 6.1 6.1 6.1 6.0 5.9 5.8 5.8 5.8 5.7 5.7 5.5 5.5 5.4 5.3 5.3
6.4 6.3 5.8 5.7 5.7 5.7 5.7 6.0 6.4 6.7 6.8 5.7 6.6 6.8 6.8 7.1 6.5 6.1 5.7 5.8 5.7 5.6 5.4 5.4 5.6 5.5 5.7 5.8 6.0 6.1 6.2 6.1 5.9 5.8 5.8 5.8 5.7 5.6 5.5 5.6 5.4 5.3 5.4 5.6
6.5 6.0 5.8 6.0 6.0 6.1 5.9 6.1 6.0 6.6 6.7 6.8 6.7 6.4 6.3 6.4 6.2 5.5 5.7 5.6 5.6 5.5 5.5 5.6 5.8 5.9 6.0 6.1 6.0 6.0 6.0 5.8 5.7 5.6 5.7 5.7 5.6 5.7 5.7 5.6 5.5 5.6 5.8 5.8
6.5 6.3 5.9 5.8 5.9 6.1 6.0 6.2 6.2 6.2 6.3 6.5 6.1 6.2 6.2 6.1 5.8 5.6 5.8 6.0 6.1 6.0 5.9 6.0 6.1 6.0 6.0 5.9 5.8 5.9 5.8 5.6 5.5 5.6 5.6 5.6 5.6 5.6 5.6 5.6 5.5 5.5 5.7 5.7
6.6 6.3 6.3 6.2 6.3 6.4 6.2 6.3 6.1 5.8 6.0 6.6 6.8 6.6 6.0 6.1 5.9 5.8 5.9 6.0 6.0 5.8 5.7 5.7 6.0 5.9 5.6 5.6 5.7 5.7 5.5 5.4 5.4 5.6 5.5 5.5 5.6 5.6 5.6 5.5 5.5 5.5 5.8 5.9
6.6 6.3 6.4 6.2 6.4 6.3 6.2 6.1 5.6 5.6 6.2 6.2 6.5 6.5 6.4 5.9 5.9 5.6 5.5 5.9 5.8 5.6 5.4 5.2 5.4 5.7 5.3 5.4 5.6 5.7 5.6 5.5 5.5 5.6 5.6 5.5 5.5 5.6 5.7 5.8 5.9 5.8 5.8 5.8
6.4 6.5 6.5 6.6 6.6 6.4 6.2 6.1 5.9 5.6 5.7 5.8 6.2 6.7 6.2 6.0 5.9 5.7 6.0 5.9 5.7 5.5 5.5 5.4 5.1 5.2 5.4 5.5 5.7 5.7 5.8 5.7 5.8 5.7 5.7 5.6 5.6 5.9 5.9 6.0 5.9 5.7 5.8 5.7
6.2 6.4 6.4 6.5 6.6 6.4 6.4 7.2 6.7 6.5 6.6 6.6 6.3 7.1 6.6 6.3 6.2 6.2 5.9 5.8 5.6 5.6 5.6 5.6 5.6 5.5 5.5 5.5 5.8 5.8 5.7 5.8 5.9 5.9 5.9 5.8 5.9 6.0 5.9 5.7 5.6 5.6 5.9 5.9
6.1 6.0 6.1 6.1 6.3 5.2 7.0 7.0 7.0 6.7 6.5 6.5 6.7 6.4 5.9 5.9 6.2 6.0 5.8 5.7 5.7 5.7 5.8 5.9 5.9 5.8 5.8 6.0 5.8 5.7 5.9 6.0 5.9 5.9 5.8 5.9 5.9 5.8 6.0 6.0 5.7 5.7 5.9 5.8
6.0 6.1 6.2 6.0 6.5 6.9 7.1 6.9 6.7 6.5 6.2 6.3 6.5 6.1 6.0 5.9 6.1 5.9 5.8 5.8 5.9 6.0 6.1 6.0 6.1 6.1 5.9 5.7 5.7 5.8 5.8 5.8 5.7 5.9 5.8 5.9 5.8 5.7 5.9 5.8 5.6 5.7 5.7 5.5
5.9 5.8 5.8 5.9 5.9 6.2 6.6 6.9 6.7 6.3 6.3 6.4 6.5 6.3 6.2 6.2 5.9 6.1 5.9 5.8 5.8 5.9 6.0 6.1 6.2 6.2 5.6 5.8 5.6 5.7 5.9 5.8 5.8 5.8 5.8 5.9 5.9 5.7 5.7 5.7 5.6 5.5 5.6 5.3
5.6 5.6 5.6 5.7 5.8 6.0 6.4 6.5 6.4 6.3 6.2 6.1 6.2 6.2 6.2 6.2 6.2 6.1 5.8 5.6 5.5 5.7 5.9 6.1 6.3 6.2 5.9 5.8 5.8 5.8 5.8 5.8 5.9 5.8 5.7 5.9 5.7 5.6 5.6 5.7 5.6 5.6 5.5 5.6
5.8 5.7 5.7 5.7 5.7 5.5 6.4 6.1 6.1 6.2 6.2 6.1 6.2 6.2 6.3 6.4 6.4 6.3 6.1 5.7 5.5 5.6 5.9 6.1 6.3 6.3 6.0 5.8 5.8 5.8 5.8 5.8 5.8 5.7 5.7 5.6 5.7 5.7 5.7 5.7 5.6 5.6 5.6 5.7
6.1 6.1 6.0 6.1 6.1 6.2 6.2 6.2 6.3 6.0 6.0 6.1 6.1 6.1 6.3 6.5 6.5 6.4 6.2 6.0 5.8 5.5 5.8 6.0 6.0 6.0 6.1 6.1 6.0 6.0 5.9 5.9 5.9 5.8 5.7 5.7 5.8 5.7 5.7 5.7 5.6 5.6 5.7 5.9
6.1 6.1 6.1 6.1 6.3 6.1 6.2 6.1 6.1 6.0 5.9 6.1 6.0 6.0 6.2 6.3 6.3 6.3 6.0 5.9 5.9 5.8 5.5 5.7 5.9 6.1 6.0 6.1 6.0 5.9 6.1 6.0 5.9 5.9 5.8 5.7 5.8 5.8 5.8 5.7 5.6 5.7 5.8 5.9
6.2 6.3 6.3 6.3 6.2 6.0 6.1 6.0 6.0 5.9 5.8 5.8 5.8 5.9 6.0 6.3 6.5 6.5 6.4 6.2 5.9 5.8 5.6 5.6 5.7 5.9 6.0 5.9 5.9 5.9 5.9 6.1 6.1 5.9 5.7 5.7 5.8 5.8 5.7 5.6 5.7 5.7 5.6 5.7
6.4 6.5 6.3 6.3 6.2 6.1 6.1 6.1 6.2 6.0 6.0 5.9 5.8 5.9 6.1 6.3 6.4 6.5 6.5 6.4 6.2 6.1 6.1 5.9 5.8 5.7 5.9 5.8 5.9 5.9 5.9 6.0 6.0 5.9 5.8 5.7 5.7 5.7 5.6 5.6 5.6 5.6 5.6 5.6
Wind_Speed
13 7 16 23 15 11 12 13 13 14 10 17 17 12 12 6 6 7 8 7 6 6 7 3 7 7 7 7 7 6 6 5 4 3 2 5 6 6 5 6 17 15 12 13
10 10 11 14 14 16 7 12 16 3 12 9 11 14 13 9 10 9 8 8 7 4 5 7 7 5 4 5 6 5 6 6 5 3 3 3 4 4 5 5 11 16 13 9
9 4 7 11 12 13 14 12 13 6 5 3 3 8 11 7 3 2 3 5 5 5 5 7 7 6 6 8 7 7 7 7 5 6 3 3 2 1 3 4 6 10 15 14
5 4 11 6 9 16 11 9 8 10 6 3 8 3 14 15 5 5 6 6 6 5 5 5 6 6 6 4 5 5 4 5 6 7 4 3 2 3 4 5 7 7 13 12
3 3 8 5 7 12 4 7 8 8 7 1 8 1 2 12 7 6 8 7 6 5 7 7 6 5 6 3 3 5 6 4 5 5 4 4 5 4 4 3 4 4 4 9
4 2 2 2 4 6 7 8 9 2 1 2 7 6 4 7 11 10 8 8 7 6 6 6 5 4 5 4 4 5 6 4 5 4 4 4 5 6 5 5 4 3 2 3
3 2 4 2 6 2 6 9 3 2 2 4 2 6 5 12 13 8 8 9 7 7 6 5 6 4 5 6 6 6 7 6 6 7 7 6 4 5 5 5 4 6 3 2
2 2 2 3 1 5 3 2 3 5 5 4 2 5 4 8 12 9 8 8 6 6 6 5 5 4 6 7 8 8 8 7 7 7 7 7 8 5 4 6 4 4 3 4
4 1 1 4 2 2 3 3 2 3 3 4 5 3 3 2 9 8 8 7 7 6 5 5 5 6 6 7 7 6 7 7 7 7 6 7 7 7 6 8 6 6 7 8
6 4 2 3 2 4 1 3 2 1 2 3 4 6 4 11 12 9 8 7 7 5 6 5 5 6 5 5 4 6 6 6 6 7 6 4 6 6 5 6 7 7 6 7
4 3 5 8 6 8 3 1 2 2 1 1 2 3 4 15 12 9 8 7 7 6 5 4 5 4 4 4 5 6 6 7 7 7 7 7 7 7 7 6 7 7 7 8
4 4 3 2 2 2 3 3 7 3 3 2 3 2 7 10 9 7 7 6 6 5 4 5 4 3 5 5 5 5 6 6 6 6 7 7 7 7 7 6 7 7 7 7
3 2 3 2 1 2 2 3 3 5 3 2 2 3 8 9 8 5 6 8 7 6 5 5 5 4 4 5 4 5 6 6 6 6 6 7 7 7 7 6 6 6 7 7
5 1 1 1 3 3 3 6 6 5 3 3 4 4 7 11 8 7 8 6 7 6 6 4 4 5 5 4 4 5 6 6 6 6 6 6 6 5 6 5 7 9 8 7
3 1 3 2 2 2 4 5 7 6 5 4 2 2 11 8 7 6 7 6 6 4 5 4 2 5 4 4 5 5 5 4 5 6 6 5 6 7 7 8 8 8 9 8
2 1 3 3 1 3 4 7 8 8 9 9 7 7 5 4 6 6 7 7 5 4 4 4 4 4 5 5 4 4 5 6 6 5 6 6 6 7 7 6 6 7 7 9
5 4 2 1 2 4 6 12 13 7 7 10 9 8 3 4 4 4 4 7 6 6 6 6 5 5 5 5 4 6 6 6 6 5 5 6 6 7 7 7 6 10 8 10
4 5 2 2 2 1 5 3 3 14 9 9 6 8 5 5 6 5 3 4 7 7 6 5 5 5 5 4 5 6 7 5 5 5 5 5 6 8 6 5 7 9 8 8
1 4 3 2 4 6 6 4 3 6 9 12 12 7 6 5 4 3 6 3 5 6 6 5 6 6 5 5 5 6 7 5 5 5 5 6 7 7 5 7 8 7 7 6
1 2 2 2 1 3 3 4 1 2 2 4 9 7 5 6 2 2 7 6 6 6 6 6 6 4 5 2 5 6 6 5 5 5 6 6 6 5 6 6 6 5 6 2
3 3 4 4 2 5 5 6 1 2 3 5 5 2 3 4 2 5 8 6 6 6 6 7 7 5 5 6 7 7 5 5 4 5 5 6 6 7 6 5 3 3 3 4
7 5 4 4 3 7 4 2 1 3 4 5 3 2 2 7 7 6 6 6 6 7 6 6 6 6 5 5 6 7 5 5 5 5 5 5 5 4 3 4 3 3 4 4
4 4 4 6 4 3 5 4 4 3 3 3 4 4 3 5 5 7 6 6 7 8 6 5 7 6 3 5 6 7 6 6 6 5 4 4 5 5 4 3 2 2 3 3
5 4 2 3 5 7 6 6 4 2 4 5 5 3 1 3 7 8 7 6 5 6 6 5 8 7 6 6 7 6 7 6 6 6 5 4 4 4 3 2 2 3 3 2
3 5 6 5 6 3 4 6 8 6 4 3 5 3 2 2 5 7 6 7 7 6 7 7 8 7 8 7 8 8 7 6 5 6 5 5 3 4 4 4 3 3 2 3
4 4 4 4 2 2 2 6 6 4 2 3 1 2 4 3 4 7 7 7 7 8 7 6 7 9 9 8 9 8 7 7 6 6 4 4 3 3 4 4 3 7 5 4
Wind_Direction
173 157 198 192 192 203 207 194 234 202 177 190 214 212 231 219 175 233 253 262 263 219 223 124 48 13 346 325 320 307 308 274 203 242 219 165 191 199 197 214 262 284 226 211
149 202 194 187 193 229 243 243 216 248 151 189 201 225 230 226 196 209 236 260 260 292 40 65 52 12 333 312 324 311 288 286 252 206 237 178 177 198 204 196 231 257 279 272
146 133 180 196 207 222 231 250 188 154 122 317 302 246 217 233 207 32 347 290 315 23 30 59 77 59 43 36 8 345 332 329 326 337 340 327 162 148 171 219 228 232 243 264
138 133 171 172 239 214 216 232 171 126 131 218 185 252 209 201 174 202 214 206 172 134 99 77 72 65 68 28 3 340 316 311 318 331 340 321 274 258 225 191 208 213 214 223
44 133 168 165 266 231 232 116 92 126 198 93 197 268 208 150 195 195 187 140 128 123 130 125 111 110 108 72 20 349 350 38 13 355 320 290 294 290 289 286 232 233 225 209
49 45 74 166 299 317 234 107 85 79 197 242 210 196 208 176 192 174 149 148 155 147 118 113 129 87 82 51 21 2 5 10 25 16 333 303 282 290 309 315 302 266 264 274
135 33 337 96 174 207 230 124 123 166 202 230 265 190 267 190 160 155 153 151 147 160 105 73 64 21 41 30 16 2 14 352 16 18 4 349 336 338 326 321 324 333 309 271
71 359 311 344 131 183 217 174 170 196 185 162 44 222 305 110 129 135 121 119 137 114 102 84 58 40 35 27 19 7 358 356 19 16 356 5 23 18 5 6 354 350 350 344
162 146 156 261 174 273 147 213 352 313 230 106 192 146 24 77 111 124 146 169 152 135 116 88 51 56 37 31 19 4 5 6 19 10 8 19 26 21 9 2 9 8 10 4
156 115 128 144 238 349 125 220 145 313 152 218 202 174 206 184 163 169 153 182 150 142 105 81 77 68 47 49 19 26 18 28 23 10 5 32 29 17 20 26 15 16 2 4
172 109 173 161 201 165 160 228 274 276 266 168 141 251 201 173 164 169 163 142 145 128 96 81 82 73 78 64 44 39 26 35 20 13 27 34 21 22 28 31 24 16 12 15
15 95 161 139 44 328 314 185 182 162 190 112 171 275 130 149 156 136 134 135 127 116 114 104 100 84 85 67 49 51 34 36 21 21 45 44 29 25 27 27 20 21 24 20
160 154 110 167 180 176 227 244 301 79 22 235 119 251 113 101 105 149 160 159 162 152 148 153 144 117 92 70 55 57 52 33 31 38 44 46 42 33 25 21 22 33 33 23
331 151 15 143 132 117 189 198 194 116 136 195 217 143 155 161 162 199 156 158 157 157 142 119 136 136 123 113 79 69 52 44 32 47 50 54 50 46 44 22 43 49 44 44
339 162 31 32 76 143 195 210 202 170 217 164 344 209 195 171 191 204 118 121 121 149 147 133 143 124 112 96 79 68 72 58 60 48 52 58 57 46 41 36 41 55 55 57
106 119 74 299 141 279 260 249 221 203 217 260 275 287 300 284 115 127 173 154 170 175 168 166 155 148 121 103 101 84 69 48 46 54 54 52 56 62 56 56 52 62 65 62
156 128 125 253 186 293 285 225 212 195 191 200 214 217 312 116 145 119 131 162 188 172 172 183 157 126 106 113 106 74 67 44 52 48 52 67 73 74 69 77 79 81 65 67
188 143 134 226 180 293 221 74 204 205 201 211 216 226 218 162 138 141 175 172 168 153 155 140 139 122 123 106 91 102 88 76 72 76 74 73 89 95 93 77 70 69 65 62
320 150 185 188 210 274 151 179 174 158 233 212 209 246 281 111 108 213 148 97 106 134 135 127 92 88 91 105 117 107 105 106 100 90 94 104 113 101 93 80 73 71 75 76
226 354 146 72 263 256 110 150 17 162 164 21 181 219 195 120 179 204 133 124 110 108 114 116 124 113 118 100 106 99 88 102 103 111 109 112 105 95 88 85 88 95 102 128
189 194 195 229 253 296 138 129 59 214 136 88 69 75 157 157 182 126 118 125 134 134 124 120 128 138 119 96 95 110 128 125 123 120 114 112 105 102 113 125 141 147 139 103
182 184 186 201 196 260 126 84 193 131 105 92 75 116 144 119 131 136 141 141 130 131 127 137 131 121 100 111 131 129 130 140 142 132 137 149 149 145 171 164 179 162 132 123
196 203 179 190 217 160 183 116 124 129 108 106 85 100 96 131 166 164 165 161 162 158 159 137 121 112 145 156 145 148 150 159 156 150 159 156 152 150 146 113 99 82 87 101
223 238 169 144 257 203 187 153 140 124 135 127 109 91 135 196 173 181 163 167 163 154 154 137 138 163 173 158 151 153 165 187 168 168 158 140 129 129 118 100 65 76 53 82
185 165 186 251 284 250 195 195 161 140 152 148 131 162 214 259 186 167 171 174 172 167 171 161 163 169 179 165 161 173 186 195 173 153 159 145 147 133 100 76 67 100 73 86
182 191 185 216 43 116 126 77 86 114 85 41 49 181 193 215 247 166 172 169 173 174 174 169 166 166 179 181 182 192 182 184 157 158 160 168 162 167 149 137 90 82 106 85